This demonstration page uses our WeatherBlox Daily Observations layout. Learn more.

38.89511, -77.03637

Hourly Observations for January 27, 2018

Temp ( °F °C ) Dew Point ( °F °C ) Humidity (%) Winds ( mph kmh ) Pressure ( in mb ) Visibility ( mi km ) Precip ( " mm )
12:52 am 00:52 Mostly Clear 39 3.9 28 -2.2 65 65 SSW 10 17 30.54 1034 10 16.0934 0 0
1:52 am 01:52 Clear 41 5 27 -2.8 57 57 SSW 10 17 30.53 1034 10 16.0934 0 0
2:52 am 02:52 Clear 41 5 29 -1.7 62 62 S 14 22 30.53 1034 10 16.0934 0 0
3:52 am 03:52 Clear 40 4.4 26 -3.3 58 58 SSW 10 17 30.52 1034 10 16.0934 0 0
4:52 am 04:52 Mostly Clear 39 3.9 26 -3.3 60 60 SSW 9 15 30.52 1034 10 16.0934 0 0
5:52 am 05:52 Mostly Clear 39 3.9 30 -1.1 70 70 S 13 20 30.5 1033 10 16.0934 0 0
6:52 am 06:52 Mostly Clear 40 4.4 26 -3.3 58 58 S 13 20 30.51 1033 10 16.0934 0 0
7:52 am 07:52 Partly Cloudy 41 5 25 -3.9 53 53 S 14 22 30.51 1033 10 16.0934 0 0
8:52 am 08:52 Partly Cloudy 44 6.7 24 -4.4 45 45 S 15 24 30.51 1033 10 16.0934 0 0
9:52 am 09:52 Partly Cloudy 49 9.4 25 -3.9 39 39 SSW 12 19 30.51 1033 10 16.0934 0 0
10:52 am 10:52 Partly Cloudy 53 11.7 29 -1.7 40 40 SSW 14 22 30.5 1033 10 16.0934 0 0
11:52 am 11:52 Mostly Cloudy 56 13.3 33 0.6 42 42 SSW 17 28 30.46 1032 10 16.0934 0 0
12:52 pm 12:52 Mostly Cloudy 60 15.6 40 4.4 47 47 S 14 22 30.41 1030 10 16.0934 0 0
1:52 pm 13:52 Mostly Cloudy 62 16.7 42 5.6 48 48 SSW 18 30 30.36 1028 10 16.0934 0 0
2:52 pm 14:52 Mostly Cloudy 62 16.7 42 5.6 48 48 SSW 18 30 30.34 1027 10 16.0934 0 0
3:52 pm 15:52 Mostly Cloudy 62 16.7 41 5 46 46 SSW 17 28 30.33 1027 10 16.0934 0 0
4:52 pm 16:52 Mostly Cloudy 60 15.6 40 4.4 47 47 S 14 22 30.32 1027 10 16.0934 0 0
5:52 pm 17:52 Cloudy 59 15 41 5 51 51 SSW 15 24 30.32 1027 10 16.0934 0 0
6:52 pm 18:52 Cloudy 59 15 42 5.6 54 54 SSW 14 22 30.33 1027 10 16.0934 0 0
7:52 pm 19:52 Cloudy 53 11.7 41 5 64 64 S 10 17 30.32 1027 10 16.0934 0 0
8:52 pm 20:52 Cloudy 54 12.2 41 5 62 62 S 10 17 30.3 1026 10 16.0934 0 0
9:52 pm 21:52 Cloudy 53 11.7 42 5.6 66 66 S 7 11 30.3 1026 10 16.0934 0 0
10:52 pm 22:52 Cloudy 54 12.2 42 5.6 64 64 S 9 15 30.29 1026 10 16.0934 0 0
11:52 pm 23:52 Cloudy 56 13.3 42 5.6 60 60 SSW 15 24 30.28 1026 10 16.0934 0 0.0254

Powered by AerisWeather